Precipitable_Water
0.30 0.29 0.27 0.27 0.27 0.23 0.18 0.19 0.19 0.18 0.18 0.18 0.16 0.16 0.18 0.22 0.19 0.16 0.21 0.24 0.21 0.22 0.25 0.27 0.31 0.36 0.38 0.38 0.40 0.44 0.47 0.51 0.55 0.57 0.59 0.64 0.66 0.70 0.70 0.70 0.71 0.73 0.74 0.75 0.79 0.84 0.88 0.93 0.97 1.02 1.08 1.13 1.18 1.22 1.26 1.30 1.33 1.34 1.39 1.41 1.42 1.47 1.55 1.60 1.59 1.57 1.61 1.65 1.69 1.71 1.57 1.45 1.50 1.52 1.52 1.53 1.51 1.35 1.22 1.15 1.20 1.27 1.29 1.35 1.37 1.32 1.36
0.30 0.29 0.27 0.27 0.26 0.27 0.23 0.19 0.20 0.21 0.20 0.19 0.18 0.18 0.18 0.19 0.18 0.19 0.21 0.22 0.20 0.23 0.25 0.28 0.33 0.37 0.38 0.39 0.44 0.48 0.48 0.46 0.50 0.55 0.58 0.62 0.65 0.67 0.67 0.67 0.68 0.70 0.72 0.77 0.81 0.84 0.87 0.90 0.93 0.99 1.05 1.09 1.12 1.13 1.17 1.22 1.26 1.35 1.43 1.44 1.47 1.53 1.57 1.60 1.62 1.66 1.69 1.69 1.72 1.75 1.81 1.65 1.47 1.55 1.56 1.57 1.62 1.53 1.33 1.23 1.26 1.31 1.29 1.34 1.40 1.37 1.36
0.29 0.29 0.29 0.28 0.27 0.27 0.24 0.23 0.21 0.21 0.23 0.23 0.21 0.19 0.19 0.21 0.20 0.19 0.19 0.20 0.20 0.23 0.28 0.31 0.36 0.41 0.44 0.44 0.42 0.42 0.45 0.49 0.50 0.51 0.55 0.60 0.63 0.66 0.68 0.68 0.68 0.70 0.75 0.79 0.82 0.83 0.84 0.87 0.89 0.94 0.98 1.03 1.07 1.11 1.18 1.25 1.31 1.42 1.49 1.49 1.52 1.56 1.56 1.59 1.62 1.65 1.65 1.66 1.68 1.71 1.80 1.84 1.70 1.60 1.61 1.63 1.59 1.56 1.43 1.27 1.27 1.33 1.34 1.39 1.41 1.42 1.39
0.27 0.28 0.28 0.28 0.28 0.27 0.25 0.23 0.22 0.21 0.21 0.21 0.24 0.23 0.25 0.23 0.21 0.23 0.24 0.21 0.20 0.24 0.31 0.35 0.38 0.40 0.40 0.38 0.38 0.40 0.44 0.49 0.51 0.52 0.54 0.60 0.64 0.66 0.66 0.67 0.69 0.71 0.74 0.77 0.78 0.80 0.84 0.88 0.90 0.92 0.97 1.04 1.10 1.14 1.24 1.29 1.36 1.46 1.49 1.50 1.50 1.53 1.58 1.58 1.57 1.57 1.58 1.62 1.65 1.71 1.81 1.83 1.92 1.77 1.58 1.53 1.49 1.46 1.41 1.32 1.32 1.31 1.31 1.39 1.44 1.46 1.41
0.28 0.31 0.31 0.29 0.29 0.27 0.24 0.23 0.23 0.23 0.23 0.23 0.24 0.26 0.27 0.26 0.26 0.25 0.23 0.22 0.25 0.27 0.32 0.33 0.35 0.36 0.38 0.38 0.36 0.39 0.44 0.50 0.52 0.52 0.53 0.58 0.64 0.65 0.65 0.66 0.68 0.70 0.73 0.77 0.79 0.82 0.86 0.88 0.92 0.97 1.04 1.09 1.13 1.22 1.27 1.34 1.42 1.44 1.44 1.44 1.46 1.49 1.56 1.58 1.56 1.56 1.58 1.60 1.66 1.70 1.72 1.75 1.69 1.60 1.51 1.42 1.39 1.45 1.47 1.43 1.34 1.28 1.36 1.36 1.44 1.50 1.47
0.32 0.35 0.35 0.33 0.28 0.22 0.21 0.26 0.27 0.26 0.23 0.23 0.23 0.24 0.25 0.27 0.28 0.27 0.28 0.28 0.30 0.31 0.32 0.32 0.33 0.35 0.37 0.39 0.43 0.48 0.48 0.49 0.52 0.55 0.58 0.60 0.66 0.70 0.69 0.70 0.72 0.75 0.79 0.82 0.85 0.86 0.88 0.93 1.01 1.10 1.13 1.13 1.18 1.27 1.35 1.41 1.40 1.38 1.35 1.36 1.38 1.42 1.47 1.50 1.50 1.52 1.54 1.56 1.56 1.56 1.57 1.61 1.63 1.61 1.58 1.53 1.49 1.47 1.49 1.53 1.40 1.40 1.42 1.33 1.46 1.49 1.38
0.35 0.37 0.36 0.30 0.24 0.23 0.28 0.32 0.32 0.30 0.28 0.27 0.25 0.27 0.31 0.30 0.30 0.31 0.29 0.30 0.31 0.32 0.34 0.35 0.37 0.40 0.42 0.43 0.47 0.51 0.53 0.54 0.54 0.55 0.56 0.60 0.65 0.71 0.73 0.74 0.76 0.80 0.81 0.85 0.89 0.89 0.90 0.96 1.03 1.08 1.13 1.19 1.26 1.28 1.31 1.27 1.27 1.26 1.25 1.23 1.24 1.28 1.33 1.40 1.43 1.45 1.46 1.46 1.45 1.47 1.51 1.53 1.55 1.55 1.53 1.54 1.57 1.59 1.53 1.52 1.46 1.45 1.36 1.36 1.46 1.52 1.37
0.42 0.35 0.33 0.25 0.25 0.31 0.34 0.34 0.36 0.38 0.34 0.33 0.31 0.30 0.34 0.37 0.35 0.33 0.30 0.30 0.33 0.36 0.37 0.38 0.41 0.42 0.44 0.47 0.51 0.55 0.58 0.59 0.57 0.55 0.56 0.61 0.65 0.68 0.74 0.79 0.85 0.85 0.85 0.87 0.90 0.95 1.02 1.05 1.10 1.13 1.12 1.18 1.17 1.14 1.18 1.17 1.16 1.14 1.14 1.12 1.14 1.21 1.24 1.31 1.33 1.34 1.37 1.37 1.38 1.40 1.40 1.43 1.44 1.44 1.46 1.49 1.48 1.52 1.53 1.48 1.45 1.45 1.45 1.43 1.45 1.39 1.26
0.36 0.37 0.35 0.34 0.41 0.35 0.35 0.33 0.35 0.35 0.30 0.29 0.27 0.23 0.28 0.39 0.41 0.39 0.34 0.35 0.37 0.38 0.39 0.41 0.43 0.48 0.49 0.45 0.49 0.59 0.60 0.61 0.63 0.61 0.61 0.63 0.66 0.71 0.78 0.86 0.93 0.99 0.99 0.97 1.02 1.08 1.11 1.11 1.07 1.05 1.10 1.11 1.10 1.11 1.10 1.11 1.09 1.10 1.11 1.11 1.15 1.19 1.24 1.28 1.30 1.34 1.34 1.33 1.33 1.34 1.36 1.37 1.39 1.42 1.42 1.43 1.45 1.43 1.38 1.41 1.49 1.46 1.37 1.35 1.45 1.46 1.43
0.46 0.38 0.35 0.35 0.32 0.26 0.31 0.39 0.46 0.49 0.46 0.41 0.39 0.31 0.30 0.42 0.46 0.46 0.41 0.38 0.40 0.40 0.41 0.42 0.45 0.51 0.44 0.39 0.45 0.57 0.63 0.65 0.64 0.67 0.70 0.73 0.75 0.78 0.82 0.90 1.01 1.05 1.07 1.10 1.13 1.11 1.07 1.06 1.08 1.10 1.11 1.08 1.08 1.05 1.05 1.05 1.06 1.08 1.09 1.09 1.15 1.20 1.24 1.30 1.34 1.35 1.36 1.35 1.33 1.33 1.33 1.32 1.35 1.40 1.43 1.46 1.44 1.50 1.59 1.58 1.52 1.39 1.35 1.38 1.40 1.38 1.35
0.46 0.41 0.36 0.34 0.30 0.32 0.43 0.44 0.48 0.52 0.52 0.48 0.46 0.32 0.26 0.41 0.46 0.47 0.45 0.42 0.43 0.43 0.42 0.44 0.49 0.45 0.37 0.39 0.48 0.62 0.69 0.71 0.73 0.72 0.73 0.76 0.80 0.85 0.91 0.96 1.02 1.09 1.11 1.10 1.07 1.06 1.04 1.02 1.07 1.14 1.13 1.11 1.09 1.03 1.03 1.04 1.08 1.08 1.08 1.13 1.19 1.23 1.29 1.35 1.37 1.38 1.39 1.38 1.34 1.33 1.32 1.34 1.38 1.41 1.45 1.48 1.49 1.57 1.56 1.47 1.40 1.36 1.31 1.25 1.24 1.29 1.35
0.49 0.45 0.40 0.36 0.40 0.38 0.47 0.54 0.56 0.57 0.59 0.56 0.41 0.23 0.24 0.40 0.48 0.50 0.50 0.45 0.45 0.47 0.50 0.51 0.51 0.46 0.39 0.45 0.57 0.75 0.82 0.85 0.88 0.85 0.81 0.83 0.87 0.92 0.99 1.07 1.13 1.13 1.10 1.06 1.04 1.04 1.03 1.06 1.13 1.16 1.15 1.12 1.07 1.03 1.05 1.10 1.10 1.11 1.16 1.21 1.30 1.33 1.36 1.37 1.38 1.40 1.40 1.36 1.34 1.33 1.31 1.34 1.39 1.41 1.44 1.46 1.47 1.40 1.38 1.39 1.31 1.30 1.28 1.22 1.19 1.23 1.29
0.49 0.47 0.46 0.47 0.46 0.55 0.61 0.61 0.63 0.63 0.64 0.52 0.29 0.20 0.31 0.48 0.52 0.55 0.55 0.52 0.52 0.56 0.56 0.57 0.50 0.59 0.65 0.71 0.82 0.90 0.96 0.94 0.95 0.98 0.97 0.97 0.99 1.00 1.04 1.09 1.13 1.09 1.09 1.08 1.07 1.08 1.11 1.13 1.14 1.15 1.15 1.09 1.05 1.06 1.09 1.10 1.11 1.18 1.25 1.30 1.32 1.35 1.35 1.36 1.37 1.38 1.38 1.35 1.31 1.33 1.33 1.33 1.35 1.36 1.40 1.42 1.40 1.32 1.30 1.34 1.34 1.31 1.27 1.28 1.29 1.31 1.34
0.48 0.50 0.46 0.48 0.52 0.61 0.70 0.70 0.68 0.71 0.52 0.32 0.26 0.43 0.58 0.58 0.57 0.62 0.63 0.60 0.64 0.65 0.66 0.67 0.69 0.75 0.84 0.90 0.94 0.95 0.95 0.94 0.97 0.99 0.98 0.99 1.03 1.09 1.13 1.15 1.13 1.10 1.11 1.11 1.12 1.14 1.18 1.19 1.20 1.19 1.15 1.09 1.09 1.11 1.11 1.12 1.21 1.28 1.31 1.32 1.33 1.34 1.33 1.34 1.36 1.36 1.33 1.33 1.34 1.32 1.31 1.29 1.27 1.29 1.35 1.39 1.37 1.32 1.30 1.29 1.26 1.24 1.23 1.25 1.28 1.34 1.39
0.57 0.54 0.48 0.44 0.37 0.61 0.75 0.73 0.66 0.71 0.48 0.51 0.59 0.62 0.64 0.67 0.66 0.66 0.68 0.70 0.72 0.73 0.71 0.76 0.77 0.81 0.85 0.85 0.86 0.88 0.88 0.87 0.88 0.90 0.92 0.93 0.96 1.00 1.03 1.07 1.14 1.14 1.11 1.12 1.14 1.14 1.20 1.22 1.22 1.22 1.19 1.15 1.16 1.17 1.15 1.22 1.31 1.34 1.37 1.35 1.34 1.33 1.33 1.34 1.33 1.31 1.31 1.30 1.30 1.31 1.28 1.27 1.25 1.25 1.32 1.31 1.29 1.28 1.26 1.25 1.23 1.22 1.26 1.29 1.33 1.36 1.38
0.50 0.49 0.46 0.47 0.62 0.75 0.83 0.75 0.58 0.66 0.69 0.79 0.75 0.68 0.63 0.69 0.71 0.69 0.70 0.72 0.76 0.78 0.75 0.75 0.77 0.80 0.80 0.81 0.83 0.83 0.83 0.85 0.88 0.92 0.96 0.98 0.99 0.99 1.02 1.04 1.06 1.08 1.09 1.13 1.15 1.20 1.22 1.23 1.26 1.27 1.24 1.16 1.16 1.17 1.20 1.35 1.36 1.38 1.36 1.35 1.35 1.32 1.32 1.32 1.30 1.28 1.29 1.30 1.30 1.29 1.29 1.29 1.29 1.29 1.29 1.29 1.29 1.31 1.29 1.25 1.22 1.21 1.21 1.27 1.28 1.26 1.27
0.62 0.54 0.62 0.78 0.85 0.84 0.88 0.85 0.83 0.82 0.84 0.83 0.81 0.75 0.73 0.71 0.71 0.77 0.72 0.73 0.77 0.80 0.81 0.80 0.78 0.76 0.79 0.80 0.83 0.81 0.83 0.86 0.86 0.87 0.93 0.97 0.98 0.98 0.99 1.01 1.03 1.03 1.01 1.01 1.08 1.12 1.16 1.18 1.22 1.25 1.30 1.27 1.24 1.26 1.34 1.39 1.38 1.36 1.35 1.32 1.30 1.29 1.30 1.32 1.31 1.32 1.33 1.31 1.28 1.27 1.27 1.26 1.24 1.27 1.27 1.29 1.27 1.30 1.30 1.25 1.19 1.15 1.22 1.26 1.24 1.26 1.27
0.83 0.84 0.90 0.98 0.90 0.87 0.86 0.88 0.89 0.83 0.81 0.83 0.82 0.78 0.73 0.76 0.78 0.79 0.75 0.77 0.80 0.81 0.81 0.77 0.77 0.77 0.78 0.79 0.82 0.85 0.86 0.88 0.91 0.94 0.95 0.99 1.01 1.03 1.03 1.03 1.01 1.01 1.02 1.01 1.00 1.02 1.09 1.14 1.13 1.16 1.17 1.19 1.14 1.20 1.30 1.36 1.37 1.34 1.28 1.25 1.26 1.31 1.35 1.37 1.37 1.38 1.33 1.29 1.28 1.27 1.26 1.27 1.26 1.26 1.23 1.22 1.21 1.22 1.20 1.17 1.18 1.22 1.22 1.21 1.23 1.24 1.20
0.67 0.60 0.82 0.85 0.84 0.86 0.86 0.85 0.88 0.90 0.91 0.89 0.89 0.86 0.84 0.83 0.83 0.83 0.85 0.84 0.84 0.85 0.85 0.81 0.79 0.79 0.81 0.81 0.84 0.86 0.87 0.89 0.93 0.96 0.99 0.99 1.01 1.02 1.01 1.05 1.04 1.00 0.98 0.97 0.96 0.95 0.95 1.03 1.08 1.11 1.12 1.18 1.16 1.13 1.15 1.26 1.34 1.34 1.29 1.28 1.31 1.35 1.39 1.40 1.39 1.32 1.24 1.21 1.19 1.20 1.20 1.19 1.18 1.16 1.16 1.16 1.16 1.15 1.14 1.17 1.21 1.21 1.19 1.15 1.13 1.14 1.14
0.63 0.66 0.80 0.86 0.93 0.94 0.93 0.93 0.88 0.87 0.90 0.92 0.93 0.91 0.89 0.88 0.87 0.86 0.86 0.87 0.86 0.88 0.85 0.87 0.84 0.83 0.86 0.86 0.87 0.89 0.92 0.94 0.95 0.97 0.97 0.97 0.96 0.99 1.03 1.03 1.02 0.97 0.93 0.89 0.90 0.91 0.94 1.00 1.05 1.05 1.08 1.10 1.15 1.19 1.25 1.31 1.38 1.36 1.31 1.30 1.31 1.34 1.34 1.27 1.19 1.18 1.17 1.18 1.17 1.16 1.20 1.20 1.16 1.15 1.15 1.17 1.15 1.15 1.18 1.17 1.13 1.10 1.11 1.12 1.12 1.12 1.09
0.70 0.80 0.85 0.89 0.91 0.93 0.95 0.97 0.96 0.95 0.94 0.93 0.96 0.96 0.92 0.89 0.86 0.85 0.87 0.88 0.89 0.89 0.89 0.90 0.87 0.85 0.86 0.89 0.91 0.91 0.94 0.94 0.95 0.96 0.97 0.98 0.99 1.00 0.98 0.99 1.01 1.00 0.98 0.97 0.97 0.97 0.98 1.05 1.08 1.11 1.18 1.23 1.26 1.23 1.27 1.37 1.43 1.33 1.30 1.31 1.25 1.21 1.16 1.11 1.10 1.13 1.13 1.14 1.14 1.16 1.20 1.23 1.23 1.24 1.25 1.26 1.26 1.27 1.27 1.25 1.20 1.14 1.12 1.11 1.09 1.10 1.07
0.54 0.59 0.70 0.83 0.71 0.73 0.88 0.94 0.97 0.98 0.97 0.95 0.95 0.98 0.99 0.97 0.92 0.91 0.88 0.89 0.93 0.94 0.95 0.95 0.94 0.91 0.93 0.96 0.97 0.95 0.97 0.97 0.98 0.98 1.00 1.02 1.03 1.02 1.05 1.05 1.06 1.05 1.05 1.04 1.00 0.97 0.99 1.07 1.10 1.10 1.09 1.13 1.19 1.26 1.38 1.40 1.37 1.28 1.22 1.17 1.09 1.06 1.06 1.06 1.08 1.09 1.11 1.14 1.16 1.17 1.18 1.18 1.18 1.19 1.22 1.24 1.26 1.22 1.18 1.20 1.19 1.17 1.13 1.11 1.14 1.11 1.03
0.51 0.63 0.74 0.82 0.84 0.84 0.89 0.95 1.01 1.00 1.02 1.04 0.97 0.95 0.96 0.98 0.99 1.00 0.96 0.92 0.91 0.92 0.96 1.01 0.95 0.92 0.91 0.92 0.95 0.94 0.95 0.98 1.02 1.05 1.05 1.05 1.07 1.07 1.08 1.03 1.02 1.01 1.03 1.04 1.01 0.99 1.00 1.02 1.04 1.05 1.09 1.15 1.22 1.29 1.29 1.25 1.19 1.14 1.10 1.02 0.98 0.99 1.01 1.02 1.04 1.06 1.08 1.08 1.11 1.12 1.15 1.17 1.18 1.16 1.14 1.18 1.20 1.20 1.18 1.14 1.11 1.10 1.11 1.10 1.08 1.06 1.04
0.79 0.80 0.81 0.82 0.79 0.76 0.85 0.95 0.98 0.97 1.03 1.02 0.99 1.02 1.00 0.97 0.97 0.96 0.94 0.93 0.93 0.98 1.01 0.98 0.99 0.94 0.90 0.89 0.89 0.89 0.92 0.95 0.98 1.02 1.05 1.06 1.07 1.07 1.09 1.06 1.05 1.04 1.03 1.05 1.04 1.03 1.05 1.03 1.02 1.04 1.05 1.11 1.18 1.24 1.22 1.20 1.18 1.12 1.04 0.97 0.93 0.96 0.98 1.01 1.03 1.05 1.05 1.03 1.03 1.04 1.08 1.12 1.12 1.07 1.03 1.01 1.04 1.08 1.06 1.04 1.02 1.02 1.02 1.02 1.03 1.03 1.04
0.78 0.89 0.87 0.87 0.85 0.85 0.91 0.93 0.93 0.94 0.98 1.00 0.99 1.00 1.02 1.00 1.03 1.02 0.97 0.94 0.93 0.93 0.95 0.94 0.96 0.96 0.91 0.88 0.87 0.86 0.85 0.87 0.91 0.94 0.96 1.00 1.01 1.02 1.02 1.03 1.04 1.05 1.07 1.08 1.09 1.07 1.05 1.03 1.00 0.99 0.99 1.06 1.14 1.18 1.18 1.17 1.14 1.07 1.03 1.00 0.98 1.00 1.01 1.02 1.02 1.02 0.99 0.96 0.96 0.97 1.00 1.02 1.01 0.99 0.99 0.97 0.93 0.93 0.98 0.97 0.94 0.96 0.98 0.98 0.99 1.00 1.01
0.93 0.91 0.91 0.91 0.90 0.88 0.91 0.91 0.91 0.92 0.94 0.95 0.92 0.91 0.93 0.94 0.94 0.93 0.93 0.94 0.94 0.91 0.89 0.88 0.88 0.89 0.90 0.87 0.87 0.87 0.85 0.83 0.83 0.86 0.88 0.87 0.88 0.89 0.90 0.92 0.96 0.99 1.02 1.05 1.05 1.04 1.01 0.99 0.96 0.96 0.99 1.05 1.11 1.14 1.17 1.17 1.14 1.08 1.06 1.07 1.08 1.06 1.03 1.00 0.98 0.95 0.94 0.93 0.94 0.95 0.98 0.99 0.98 0.97 0.96 0.94 0.92 0.92 0.91 0.86 0.82 0.88 0.95 0.98 0.99 1.02 1.04
0.95 0.97 0.92 0.87 0.85 0.86 0.90 0.84 0.80 0.86 0.86 0.86 0.84 0.84 0.85 0.86 0.86 0.87 0.90 0.89 0.88 0.88 0.86 0.87 0.85 0.84 0.84 0.83 0.83 0.83 0.81 0.82 0.82 0.80 0.80 0.81 0.80 0.82 0.86 0.89 0.91 0.92 0.94 0.96 0.97 0.99 0.98 0.98 0.96 0.95 0.96 1.03 1.10 1.13 1.14 1.16 1.14 1.12 1.11 1.12 1.11 1.09 1.07 1.00 0.96 0.92 0.91 0.93 0.93 0.92 0.92 0.92 0.93 0.91 0.91 0.91 0.90 0.86 0.81 0.77 0.79 0.83 0.89 0.96 1.03 1.06 1.07
0.95 0.96 0.96 0.83 0.80 0.82 0.83 0.88 0.89 0.88 0.88 0.87 0.86 0.84 0.85 0.86 0.84 0.82 0.81 0.81 0.82 0.83 0.83 0.83 0.82 0.80 0.78 0.79 0.79 0.78 0.79 0.78 0.77 0.77 0.75 0.74 0.76 0.80 0.81 0.82 0.81 0.82 0.82 0.84 0.89 0.93 0.95 0.96 0.96 0.95 0.97 1.03 1.08 1.12 1.14 1.16 1.16 1.14 1.12 1.11 1.10 1.08 1.06 1.03 0.98 0.95 0.92 0.92 0.93 0.91 0.88 0.88 0.88 0.86 0.84 0.82 0.81 0.82 0.85 0.87 0.88 0.89 0.92 0.97 1.01 1.04 1.04
0.93 0.97 0.98 0.96 0.94 0.93 0.93 0.93 0.92 0.88 0.86 0.88 0.90 0.89 0.86 0.82 0.82 0.80 0.79 0.79 0.80 0.81 0.79 0.79 0.80 0.80 0.78 0.77 0.77 0.73 0.71 0.70 0.68 0.67 0.68 0.69 0.69 0.69 0.71 0.72 0.70 0.70 0.72 0.74 0.78 0.83 0.88 0.90 0.94 0.96 0.98 1.02 1.03 1.07 1.10 1.12 1.13 1.12 1.10 1.08 1.07 1.08 1.10 1.08 1.01 0.97 0.95 0.94 0.93 0.92 0.91 0.90 0.89 0.88 0.87 0.87 0.88 0.89 0.89 0.90 0.93 0.93 0.92 0.94 0.94 0.95 0.98
0.97 1.00 0.99 0.97 0.95 0.93 0.90 0.85 0.84 0.84 0.83 0.87 0.88 0.87 0.88 0.87 0.83 0.82 0.82 0.81 0.81 0.76 0.77 0.79 0.78 0.76 0.76 0.71 0.68 0.65 0.62 0.61 0.60 0.60 0.59 0.59 0.59 0.61 0.62 0.65 0.63 0.62 0.63 0.64 0.70 0.75 0.79 0.84 0.90 0.92 0.95 0.99 1.00 1.05 1.08 1.11 1.11 1.12 1.10 1.09 1.10 1.10 1.10 1.09 1.03 0.97 0.96 0.94 0.94 0.93 0.93 0.92 0.92 0.90 0.89 0.91 0.93 0.93 0.93 0.93 0.93 0.91 0.88 0.88 0.88 0.87 0.86
0.89 0.91 0.92 0.91 0.87 0.86 0.83 0.82 0.83 0.81 0.80 0.79 0.79 0.78 0.77 0.77 0.74 0.72 0.73 0.74 0.75 0.73 0.74 0.73 0.71 0.69 0.66 0.64 0.62 0.60 0.57 0.54 0.52 0.52 0.52 0.53 0.53 0.55 0.56 0.59 0.53 0.48 0.50 0.56 0.65 0.73 0.77 0.82 0.88 0.91 0.98 1.00 1.00 1.03 1.06 1.07 1.08 1.08 1.08 1.11 1.15 1.16 1.09 1.03 1.00 0.98 0.95 0.94 0.94 0.92 0.92 0.92 0.93 0.92 0.92 0.93 0.94 0.94 0.93 0.92 0.90 0.89 0.88 0.87 0.86 0.86 0.87
0.83 0.83 0.80 0.79 0.79 0.75 0.76 0.78 0.78 0.77 0.76 0.75 0.72 0.69 0.70 0.68 0.67 0.68 0.70 0.71 0.72 0.71 0.69 0.66 0.63 0.60 0.59 0.58 0.56 0.53 0.51 0.49 0.48 0.48 0.48 0.49 0.49 0.49 0.51 0.52 0.55 0.57 0.58 0.60 0.63 0.71 0.77 0.84 0.90 0.95 0.99 1.01 1.03 1.03 1.05 1.07 1.08 1.07 1.10 1.15 1.17 1.12 1.05 1.01 0.98 0.97 0.98 0.97 0.97 0.95 0.94 0.93 0.93 0.94 0.94 0.93 0.93 0.92 0.92 0.90 0.89 0.89 0.87 0.85 0.85 0.85 0.87
0.75 0.72 0.72 0.72 0.74 0.73 0.71 0.72 0.70 0.70 0.72 0.72 0.73 0.75 0.75 0.75 0.74 0.72 0.71 0.70 0.66 0.64 0.61 0.58 0.56 0.56 0.55 0.53 0.51 0.50 0.48 0.47 0.47 0.46 0.45 0.46 0.49 0.52 0.53 0.55 0.55 0.57 0.58 0.61 0.65 0.71 0.79 0.82 0.93 1.00 0.99 1.02 1.04 1.07 1.09 1.10 1.12 1.13 1.20 1.23 1.16 1.09 1.03 0.98 0.97 0.98 1.00 1.00 0.98 0.96 0.95 0.94 0.95 0.95 0.95 0.96 0.97 0.95 0.92 0.89 0.87 0.85 0.84 0.84 0.85 0.87 0.91
0.73 0.72 0.71 0.72 0.71 0.67 0.66 0.66 0.68 0.67 0.68 0.68 0.68 0.68 0.67 0.67 0.65 0.63 0.61 0.59 0.57 0.55 0.54 0.55 0.56 0.56 0.56 0.55 0.54 0.52 0.50 0.47 0.44 0.44 0.46 0.49 0.51 0.55 0.58 0.58 0.61 0.62 0.63 0.67 0.70 0.73 0.78 0.85 0.99 1.02 1.03 1.04 1.06 1.09 1.15 1.17 1.19 1.22 1.22 1.18 1.12 1.07 1.00 0.98 0.99 0.99 0.99 1.00 1.01 1.01 1.00 1.00 1.01 1.02 1.02 1.00 0.98 0.94 0.90 0.87 0.85 0.84 0.84 0.86 0.89 0.91 0.93
0.77 0.76 0.76 0.75 0.75 0.74 0.73 0.70 0.67 0.64 0.62 0.59 0.59 0.60 0.60 0.60 0.59 0.58 0.59 0.58 0.57 0.58 0.61 0.62 0.61 0.60 0.59 0.58 0.57 0.56 0.54 0.52 0.52 0.53 0.55 0.56 0.58 0.60 0.63 0.63 0.65 0.68 0.68 0.69 0.71 0.74 0.81 0.89 0.96 0.98 1.00 1.02 1.05 1.11 1.16 1.17 1.17 1.21 1.22 1.18 1.13 1.12 1.10 1.07 1.06 1.05 1.02 1.02 1.06 1.05 1.04 1.04 1.06 1.07 1.04 0.99 0.94 0.90 0.87 0.85 0.84 0.85 0.85 0.87 0.89 0.92 0.92
0.79 0.76 0.76 0.76 0.76 0.75 0.73 0.71 0.69 0.66 0.62 0.59 0.58 0.58 0.58 0.59 0.60 0.59 0.59 0.60 0.64 0.64 0.64 0.63 0.63 0.62 0.59 0.57 0.55 0.55 0.55 0.56 0.58 0.60 0.61 0.63 0.67 0.70 0.68 0.67 0.68 0.69 0.70 0.71 0.76 0.80 0.84 0.88 0.93 0.96 0.97 0.98 1.01 1.06 1.10 1.11 1.14 1.14 1.12 1.09 1.08 1.08 1.06 1.05 1.07 1.09 1.09 1.08 1.09 1.09 1.07 1.08 1.07 1.02 0.96 0.90 0.87 0.85 0.85 0.85 0.85 0.87 0.87 0.87 0.87 0.88 0.89
0.80 0.76 0.75 0.74 0.74 0.72 0.70 0.68 0.67 0.64 0.61 0.60 0.59 0.59 0.58 0.59 0.59 0.62 0.65 0.65 0.66 0.67 0.67 0.67 0.65 0.62 0.59 0.60 0.61 0.61 0.61 0.61 0.63 0.64 0.66 0.69 0.71 0.71 0.72 0.71 0.72 0.71 0.74 0.71 0.83 0.91 0.91 0.92 0.94 0.95 0.95 0.95 0.97 0.99 0.99 1.02 1.01 1.04 1.07 1.09 1.09 1.07 1.05 1.04 1.07 1.08 1.10 1.13 1.13 1.11 1.07 1.01 0.95 0.90 0.86 0.84 0.83 0.83 0.83 0.83 0.84 0.85 0.84 0.84 0.84 0.84 0.83
0.75 0.74 0.72 0.70 0.69 0.67 0.65 0.64 0.64 0.62 0.62 0.61 0.62 0.63 0.62 0.62 0.63 0.65 0.66 0.68 0.68 0.70 0.70 0.69 0.68 0.68 0.68 0.67 0.66 0.65 0.65 0.67 0.67 0.69 0.72 0.73 0.74 0.73 0.74 0.73 0.75 0.77 0.75 0.78 0.92 0.94 0.94 0.95 0.95 0.95 0.95 0.95 0.97 0.95 0.93 0.93 0.96 1.01 1.02 1.03 1.04 1.04 1.04 1.06 1.12 1.13 1.11 1.09 1.07 1.01 0.95 0.89 0.84 0.81 0.80 0.80 0.79 0.79 0.79 0.79 0.79 0.77 0.78 0.79 0.81 0.82 0.81
0.72 0.73 0.72 0.71 0.69 0.65 0.63 0.63 0.63 0.63 0.62 0.59 0.60 0.62 0.65 0.67 0.68 0.69 0.68 0.69 0.71 0.73 0.72 0.72 0.73 0.72 0.70 0.68 0.66 0.68 0.69 0.70 0.72 0.73 0.75 0.76 0.79 0.74 0.72 0.80 0.86 0.89 0.91 0.94 0.90 0.90 0.91 0.89 0.90 0.88 0.89 0.91 0.92 0.92 0.93 0.93 0.93 0.93 0.94 0.96 1.02 1.04 1.07 1.08 1.08 1.06 1.04 1.00 0.95 0.90 0.86 0.81 0.78 0.75 0.73 0.73 0.72 0.71 0.70 0.70 0.70 0.72 0.73 0.74 0.75 0.75 0.77
0.70 0.69 0.68 0.67 0.63 0.63 0.62 0.62 0.62 0.63 0.65 0.65 0.64 0.63 0.67 0.68 0.69 0.69 0.69 0.70 0.72 0.75 0.75 0.76 0.75 0.72 0.72 0.71 0.69 0.69 0.72 0.74 0.75 0.75 0.75 0.77 0.80 0.82 0.80 0.85 0.88 0.91 0.95 0.97 0.98 0.99 0.99 0.98 0.98 0.98 1.00 1.03 1.05 1.09 1.13 1.14 1.12 1.09 1.08 1.11 1.11 1.10 1.08 1.05 1.01 0.96 0.92 0.88 0.81 0.77 0.74 0.72 0.71 0.69 0.67 0.65 0.64 0.64 0.65 0.66 0.65 0.66 0.66 0.67 0.68 0.69 0.71
0.69 0.67 0.66 0.64 0.63 0.64 0.63 0.63 0.63 0.65 0.67 0.68 0.69 0.70 0.71 0.69 0.69 0.68 0.68 0.69 0.73 0.76 0.76 0.77 0.75 0.74 0.74 0.74 0.74 0.74 0.77 0.78 0.79 0.79 0.81 0.82 0.79 0.80 0.80 0.83 0.95 1.01 1.03 1.03 1.04 1.05 1.05 1.05 1.06 1.05 1.06 1.08 1.09 1.09 1.08 1.07 1.05 1.06 1.07 1.06 1.05 1.02 0.97 0.92 0.87 0.83 0.78 0.75 0.74 0.72 0.69 0.66 0.63 0.61 0.61 0.60 0.60 0.60 0.60 0.59 0.58 0.59 0.59 0.59 0.60 0.63 0.65
0.67 0.68 0.66 0.65 0.65 0.65 0.66 0.67 0.68 0.68 0.69 0.71 0.72 0.73 0.72 0.73 0.72 0.70 0.72 0.74 0.76 0.76 0.76 0.77 0.79 0.78 0.78 0.79 0.80 0.81 0.81 0.82 0.83 0.84 0.84 0.82 0.82 0.83 0.81 0.86 1.02 1.06 1.09 1.07 1.06 1.05 1.03 1.01 1.02 1.02 1.03 1.03 1.03 1.01 1.00 0.99 0.98 0.97 0.95 0.92 0.89 0.86 0.83 0.79 0.77 0.74 0.74 0.72 0.70 0.68 0.65 0.63 0.62 0.61 0.62 0.61 0.61 0.60 0.59 0.59 0.58 0.58 0.59 0.60 0.59 0.60 0.62
0.66 0.65 0.65 0.65 0.66 0.67 0.67 0.68 0.68 0.68 0.68 0.70 0.72 0.72 0.73 0.73 0.73 0.73 0.73 0.74 0.75 0.76 0.76 0.76 0.78 0.80 0.80 0.80 0.79 0.79 0.80 0.83 0.83 0.82 0.82 0.83 0.86 0.89 0.88 0.91 1.00 1.04 1.02 0.99 0.97 0.95 0.95 0.95 0.95 0.95 0.95 0.94 0.92 0.91 0.87 0.85 0.83 0.81 0.79 0.77 0.75 0.74 0.72 0.70 0.67 0.67 0.66 0.63 0.61 0.61 0.61 0.60 0.60 0.59 0.57 0.56 0.55 0.55 0.54 0.53 0.54 0.56 0.58 0.61 0.63 0.63 0.62
0.65 0.65 0.65 0.64 0.64 0.65 0.66 0.66 0.68 0.68 0.66 0.67 0.71 0.72 0.72 0.72 0.72 0.71 0.71 0.71 0.72 0.74 0.75 0.75 0.76 0.76 0.78 0.79 0.79 0.77 0.77 0.78 0.77 0.79 0.78 0.78 0.82 0.89 0.96 0.95 0.97 0.99 0.97 0.95 0.93 0.91 0.91 0.91 0.91 0.90 0.89 0.87 0.86 0.83 0.81 0.78 0.75 0.71 0.67 0.65 0.63 0.62 0.61 0.60 0.59 0.59 0.57 0.56 0.56 0.56 0.55 0.53 0.52 0.51 0.48 0.46 0.45 0.44 0.43 0.42 0.42 0.44 0.47 0.51 0.57 0.62 0.65
0.64 0.64 0.63 0.63 0.63 0.63 0.62 0.61 0.61 0.62 0.66 0.70 0.71 0.71 0.72 0.71 0.72 0.74 0.73 0.72 0.71 0.72 0.73 0.74 0.74 0.74 0.73 0.75 0.76 0.78 0.80 0.80 0.79 0.78 0.72 0.69 0.67 0.70 0.84 0.89 0.91 0.92 0.90 0.88 0.87 0.85 0.84 0.85 0.84 0.82 0.81 0.79 0.76 0.74 0.71 0.67 0.63 0.60 0.59 0.57 0.57 0.56 0.56 0.55 0.54 0.53 0.53 0.53 0.53 0.53 0.51 0.50 0.48 0.46 0.44 0.42 0.41 0.40 0.41 0.40 0.40 0.40 0.41 0.42 0.46 0.51 0.58
0.64 0.64 0.64 0.62 0.60 0.59 0.60 0.61 0.63 0.64 0.64 0.65 0.66 0.67 0.69 0.69 0.70 0.71 0.72 0.71 0.71 0.71 0.72 0.72 0.71 0.71 0.72 0.71 0.73 0.76 0.78 0.79 0.79 0.80 0.79 0.76 0.71 0.74 0.81 0.82 0.85 0.85 0.85 0.83 0.82 0.80 0.80 0.79 0.78 0.78 0.77 0.76 0.75 0.72 0.68 0.63 0.61 0.59 0.57 0.56 0.54 0.53 0.52 0.52 0.52 0.52 0.51 0.50 0.49 0.49 0.47 0.45 0.44 0.42 0.42 0.41 0.40 0.39 0.39 0.39 0.39 0.40 0.41 0.42 0.44 0.47 0.52
0.65 0.65 0.64 0.62 0.61 0.61 0.62 0.60 0.61 0.59 0.58 0.58 0.58 0.58 0.63 0.65 0.65 0.66 0.66 0.67 0.66 0.68 0.71 0.72 0.72 0.72 0.72 0.70 0.68 0.66 0.64 0.67 0.71 0.76 0.76 0.78 0.80 0.80 0.80 0.81 0.81 0.82 0.83 0.82 0.80 0.79 0.78 0.77 0.76 0.78 0.77 0.76 0.72 0.68 0.64 0.60 0.59 0.58 0.57 0.57 0.56 0.54 0.52 0.52 0.51 0.51 0.50 0.49 0.48 0.46 0.45 0.44 0.43 0.43 0.42 0.42 0.42 0.40 0.39 0.38 0.38 0.38 0.39 0.41 0.44 0.46 0.49
0.64 0.64 0.65 0.64 0.63 0.62 0.62 0.59 0.57 0.53 0.52 0.52 0.55 0.57 0.58 0.59 0.58 0.58 0.60 0.59 0.59 0.58 0.60 0.64 0.67 0.68 0.68 0.68 0.68 0.69 0.69 0.65 0.59 0.65 0.72 0.73 0.75 0.75 0.77 0.79 0.81 0.81 0.82 0.82 0.79 0.77 0.76 0.74 0.75 0.77 0.76 0.75 0.71 0.66 0.62 0.60 0.59 0.58 0.58 0.57 0.56 0.54 0.52 0.52 0.52 0.52 0.52 0.51 0.50 0.49 0.48 0.47 0.46 0.45 0.45 0.44 0.43 0.41 0.40 0.39 0.37 0.36 0.37 0.39 0.41 0.45 0.48
0.65 0.65 0.65 0.65 0.64 0.62 0.60 0.58 0.56 0.54 0.54 0.55 0.55 0.55 0.56 0.55 0.54 0.53 0.52 0.53 0.53 0.53 0.52 0.52 0.53 0.54 0.57 0.58 0.58 0.60 0.63 0.68 0.64 0.60 0.69 0.72 0.72 0.73 0.74 0.76 0.77 0.80 0.81 0.81 0.80 0.79 0.77 0.74 0.75 0.75 0.75 0.74 0.71 0.64 0.61 0.59 0.58 0.57 0.56 0.56 0.56 0.55 0.54 0.54 0.55 0.55 0.55 0.54 0.54 0.53 0.52 0.50 0.50 0.49 0.47 0.45 0.43 0.41 0.41 0.40 0.39 0.37 0.36 0.36 0.38 0.42 0.46
0.64 0.65 0.64 0.63 0.61 0.60 0.59 0.58 0.57 0.56 0.57 0.57 0.56 0.56 0.57 0.56 0.52 0.50 0.52 0.51 0.51 0.51 0.51 0.50 0.50 0.51 0.51 0.52 0.53 0.54 0.55 0.54 0.56 0.60 0.63 0.65 0.67 0.69 0.70 0.71 0.73 0.75 0.77 0.77 0.77 0.77 0.77 0.76 0.76 0.76 0.75 0.74 0.71 0.66 0.62 0.60 0.59 0.59 0.59 0.59 0.59 0.59 0.59 0.58 0.57 0.56 0.56 0.56 0.56 0.55 0.55 0.55 0.54 0.52 0.49 0.46 0.43 0.41 0.41 0.40 0.39 0.38 0.35 0.35 0.37 0.38 0.41
0.63 0.63 0.62 0.61 0.60 0.60 0.60 0.60 0.59 0.59 0.58 0.57 0.58 0.58 0.58 0.56 0.54 0.54 0.53 0.51 0.52 0.49 0.48 0.48 0.50 0.52 0.51 0.51 0.52 0.53 0.54 0.54 0.54 0.54 0.55 0.57 0.59 0.59 0.59 0.60 0.61 0.64 0.68 0.71 0.72 0.74 0.75 0.76 0.76 0.76 0.75 0.75 0.72 0.68 0.65 0.63 0.61 0.61 0.61 0.61 0.61 0.61 0.61 0.60 0.59 0.59 0.59 0.58 0.58 0.57 0.56 0.56 0.55 0.54 0.51 0.48 0.45 0.43 0.42 0.41 0.40 0.39 0.38 0.38 0.37 0.37 0.38
0.62 0.63 0.63 0.62 0.60 0.60 0.59 0.59 0.59 0.59 0.59 0.59 0.59 0.58 0.58 0.57 0.56 0.54 0.55 0.55 0.52 0.49 0.49 0.47 0.46 0.50 0.52 0.52 0.52 0.53 0.54 0.54 0.54 0.55 0.55 0.55 0.56 0.58 0.59 0.59 0.59 0.58 0.59 0.61 0.64 0.66 0.68 0.70 0.71 0.72 0.72 0.72 0.73 0.72 0.70 0.69 0.66 0.64 0.63 0.63 0.62 0.62 0.61 0.61 0.60 0.60 0.60 0.59 0.59 0.58 0.58 0.57 0.56 0.56 0.55 0.52 0.48 0.47 0.45 0.43 0.42 0.41 0.41 0.41 0.41 0.41 0.40
Wind_Speed
33 34 34 32 32 34 35 36 36 35 35 37 39 41 40 36 35 35 31 29 31 31 28 26 25 23 21 20 20 20 19 19 18 17 18 20 21 21 21 22 21 20 19 18 17 18 18 18 18 18 18 18 19 19 20 20 21 22 21 22 22 22 22 23 24 26 28 30 31 34 35 34 33 32 31 31 31 31 31 32 32 32 31 31 31 32 31
32 33 32 32 33 34 34 36 36 35 35 37 38 39 39 38 39 38 33 31 32 31 28 26 25 24 23 21 20 20 20 19 19 18 18 20 22 23 23 23 22 20 19 19 18 18 18 18 18 18 17 17 18 18 19 19 20 20 21 21 22 22 23 24 26 27 28 30 31 33 35 35 34 32 32 32 33 33 33 33 33 33 33 32 32 32 32
29 30 30 30 32 34 35 36 36 35 34 34 36 37 36 36 37 36 34 34 33 31 28 25 23 22 22 21 20 21 21 20 19 19 19 20 22 24 24 23 21 20 20 19 19 18 18 18 19 18 18 17 17 17 18 19 19 20 21 22 22 23 24 25 26 27 28 29 31 32 33 33 33 32 31 32 32 33 33 34 33 32 32 32 32 33 33
25 27 28 29 31 32 35 38 38 36 35 33 33 33 32 33 34 32 32 34 33 30 27 25 23 22 23 23 22 22 21 20 20 21 21 21 23 24 24 23 22 22 21 21 20 19 19 19 19 19 18 18 18 18 18 19 20 20 21 22 23 24 25 26 26 28 29 29 30 30 29 29 30 30 29 30 31 32 32 33 33 32 32 31 32 32 33
23 23 24 26 27 27 31 35 37 37 36 34 33 32 32 32 32 31 32 32 30 27 25 26 26 25 24 24 23 22 22 21 21 22 23 23 24 24 24 23 23 23 22 21 21 20 19 19 19 19 19 19 19 19 20 20 20 20 21 22 23 24 25 26 27 28 29 29 28 28 27 29 30 29 29 29 30 31 31 32 32 33 32 32 31 31 32
20 20 20 22 24 26 27 29 32 35 36 37 36 34 33 33 31 30 29 29 27 25 25 26 26 25 24 23 23 23 22 22 22 23 23 23 22 23 23 22 23 24 22 21 21 20 20 20 20 19 19 19 19 20 20 20 20 20 21 21 23 24 25 26 27 28 28 28 27 28 29 30 30 29 30 31 31 31 31 31 31 31 32 33 32 31 30
18 17 18 20 24 25 25 25 26 31 34 36 35 32 31 32 32 30 30 30 27 25 25 25 24 24 24 23 23 23 23 23 23 24 24 23 22 22 22 22 24 24 23 22 21 21 20 21 20 20 19 19 19 19 19 19 20 20 20 21 22 23 23 24 25 26 27 28 29 29 30 30 30 30 31 32 31 30 30 29 30 30 30 31 31 30 28
17 16 18 20 20 21 23 24 24 26 29 31 32 31 31 32 32 31 31 30 28 25 25 25 24 24 24 23 23 23 24 24 24 24 24 24 23 23 22 23 24 24 23 23 22 21 21 21 21 21 20 19 19 19 19 19 19 19 20 21 21 22 22 23 24 25 27 28 30 30 30 30 30 31 32 31 30 29 28 28 29 28 28 27 27 26 26
16 17 18 18 18 19 22 24 24 25 27 29 30 32 32 31 31 31 30 29 27 26 25 25 24 24 24 23 23 22 23 25 25 24 24 24 23 23 22 23 24 24 23 22 21 21 21 21 21 21 20 19 18 18 18 18 18 19 20 20 21 21 22 22 24 25 26 28 29 29 30 30 31 32 32 30 29 28 27 26 25 25 25 24 23 23 24
16 17 17 17 19 20 21 22 22 23 25 27 29 30 31 30 30 31 30 29 28 27 25 24 25 25 24 24 23 21 22 24 24 23 23 23 22 22 23 23 23 24 23 21 20 20 20 20 21 21 20 20 19 18 18 18 18 19 20 20 21 21 22 23 24 25 26 28 28 29 30 30 30 31 30 27 26 25 24 22 22 22 23 22 21 22 23
15 16 17 18 19 18 18 19 20 21 23 25 27 29 30 30 29 29 29 29 28 26 25 25 25 25 24 23 22 21 21 22 23 22 22 22 21 22 22 21 22 23 22 21 20 20 19 19 20 21 21 20 19 18 18 18 19 20 20 21 22 22 23 24 25 26 27 28 29 29 29 29 28 27 25 24 23 22 20 20 21 21 21 20 20 21 22
16 16 17 19 18 16 16 18 19 20 21 23 26 28 28 27 26 27 28 28 27 26 25 25 24 24 24 23 21 21 20 20 20 20 20 20 20 20 20 20 21 22 21 20 20 19 19 19 20 21 21 21 20 19 19 19 20 20 21 22 23 23 24 25 25 26 27 28 29 28 28 27 26 24 22 22 21 20 19 19 19 19 19 19 20 21 22
17 16 17 18 18 16 15 16 18 19 20 22 25 26 25 24 25 25 26 25 24 23 23 23 22 21 20 20 19 18 17 17 17 17 17 16 16 17 18 19 20 20 20 20 19 19 20 20 21 21 21 21 20 20 20 20 21 21 21 22 23 24 25 25 26 26 27 28 27 26 25 25 24 22 20 20 20 19 18 18 19 19 20 20 21 21 22
18 16 17 17 17 16 14 15 17 18 19 21 23 23 23 23 23 22 22 21 20 19 19 19 20 19 18 17 16 15 14 14 13 13 14 14 14 15 16 17 18 18 18 19 19 19 19 20 20 21 21 21 21 21 21 21 21 21 22 23 24 24 25 25 25 26 26 26 25 24 24 23 22 20 19 19 19 18 18 19 19 20 20 20 21 21 21
18 16 16 17 17 15 14 15 16 18 18 18 19 20 21 21 21 20 20 19 19 19 19 19 19 18 17 16 15 14 13 13 12 12 13 13 14 15 15 16 16 16 17 17 18 18 18 19 19 20 21 20 21 22 22 22 22 23 24 24 25 25 25 25 25 25 25 24 23 23 22 22 21 19 19 19 18 18 19 19 20 20 20 21 21 22 21
17 15 15 16 16 16 15 15 16 16 16 16 17 18 20 20 20 20 20 19 18 19 19 19 19 18 16 15 14 13 13 12 12 12 13 13 14 14 15 16 16 17 17 17 17 18 18 18 19 20 20 21 21 22 23 24 24 24 25 25 25 25 25 25 25 24 24 23 22 22 21 21 20 19 19 18 18 18 19 19 19 19 20 21 22 21 21
17 16 15 16 16 15 14 13 14 14 15 15 16 17 19 19 20 20 21 20 18 18 18 18 17 16 15 14 13 13 13 13 13 14 14 14 14 14 15 16 17 18 19 19 19 19 19 19 19 20 21 22 22 23 24 24 24 24 24 25 25 25 25 25 24 24 23 22 21 20 20 20 19 19 18 18 18 19 18 18 18 19 20 21 21 21 20
16 14 13 13 13 13 12 12 13 14 15 15 15 16 18 18 19 19 19 19 18 17 17 17 16 16 15 15 15 15 15 15 15 15 15 15 15 15 15 16 16 17 18 18 19 20 20 20 21 22 23 23 23 23 24 24 24 24 24 24 25 25 25 25 25 24 22 21 20 19 19 19 19 18 18 17 17 17 17 17 18 18 19 20 21 20 20
20 16 14 12 11 12 13 13 13 14 15 15 15 16 17 18 18 18 18 18 17 16 16 16 16 16 15 15 15 15 15 15 15 15 14 15 15 15 15 16 16 17 17 18 20 21 22 23 24 25 25 25 24 24 24 25 25 25 25 25 26 26 26 24 23 21 20 19 19 18 18 18 17 16 16 16 16 17 17 18 18 18 18 18 19 19 20
22 19 17 15 12 12 13 14 14 15 16 16 16 16 16 17 17 17 17 17 16 16 15 15 15 15 15 15 15 15 15 15 15 15 15 15 16 16 16 17 17 18 19 20 21 22 23 25 26 26 26 26 26 26 26 27 27 27 26 26 26 25 23 21 19 19 18 18 18 17 17 16 15 15 16 17 18 18 19 19 19 18 18 18 19 20 22
23 21 20 18 15 14 14 15 16 16 17 17 17 16 16 15 15 15 15 15 15 15 15 14 14 14 14 14 15 14 14 14 14 15 15 16 16 16 17 18 18 19 20 20 21 22 23 24 25 25 26 26 27 27 28 28 28 27 25 25 24 22 21 20 19 19 19 18 18 17 16 15 15 16 17 18 19 19 19 19 19 19 19 20 21 22 22
24 26 26 23 19 16 16 17 17 17 17 18 18 17 16 15 15 15 15 15 14 14 14 14 14 14 14 14 14 14 14 14 14 14 15 15 16 16 18 18 19 20 20 20 21 22 22 23 24 25 26 26 26 26 26 26 25 24 23 22 21 20 20 20 19 19 19 18 18 17 17 17 17 17 18 18 18 18 18 19 19 20 20 21 22 21 21
21 24 27 25 22 19 18 18 18 17 18 18 18 17 16 15 15 16 16 16 16 14 14 13 13 14 14 14 14 14 14 14 14 14 15 16 17 18 19 20 21 21 21 21 22 22 23 23 24 25 25 25 25 24 24 23 22 21 21 20 20 19 19 19 19 18 18 18 18 17 18 18 18 18 17 16 16 17 18 19 20 21 21 22 22 22 23
18 20 22 22 21 21 20 19 18 17 17 17 17 17 16 15 15 15 16 16 16 15 15 15 13 13 14 14 15 15 15 15 15 16 16 17 19 20 20 20 21 22 22 23 23 24 24 24 24 23 23 22 22 22 22 21 21 20 20 20 19 18 18 18 18 18 18 18 18 18 18 18 18 17 16 16 16 17 18 19 20 21 22 22 23 23 23
17 19 19 19 19 20 20 19 17 16 16 16 16 16 16 16 16 15 15 15 15 15 14 14 14 13 14 14 15 16 16 16 16 17 18 19 20 20 21 21 22 23 24 24 25 25 24 23 22 22 21 20 20 20 20 20 20 20 20 19 19 18 18 18 18 18 18 18 18 18 18 18 17 17 17 18 18 19 19 20 21 21 22 22 23 23 23
16 17 19 18 18 18 19 19 17 16 16 16 15 15 15 15 15 15 15 15 15 15 14 14 14 14 14 15 16 16 17 17 18 19 19 20 21 21 22 23 24 24 24 24 24 23 23 22 21 21 21 20 20 21 21 21 20 20 20 20 19 19 19 18 18 18 19 18 18 18 18 18 18 18 19 19 19 20 21 21 22 22 22 23 23 23 24
16 16 17 17 16 16 16 17 17 17 16 16 15 15 15 14 14 14 14 14 14 14 14 14 14 15 16 16 17 17 18 18 19 20 20 20 21 22 23 24 24 24 23 23 22 22 22 22 21 21 21 21 21 21 21 21 20 20 19 19 19 19 19 19 19 19 19 19 19 19 19 19 20 20 20 20 21 22 22 22 23 23 23 23 23 24 24
15 14 14 15 15 14 14 15 16 16 15 15 15 15 15 15 14 13 13 13 14 14 13 13 14 15 16 16 17 17 18 18 19 19 19 20 20 21 22 22 22 22 22 22 21 21 21 21 22 22 21 21 21 21 21 21 21 20 20 20 20 20 20 20 20 20 20 20 20 20 20 21 21 21 21 22 22 22 23 23 23 22 22 23 23 24 25
15 14 14 14 13 12 12 13 14 14 14 14 14 14 14 14 14 13 12 12 12 13 13 13 13 14 14 15 16 16 17 17 18 18 19 19 20 21 21 21 21 21 21 21 21 21 21 22 22 22 22 21 21 21 21 21 21 21 20 20 20 21 21 22 22 22 22 22 22 22 22 22 22 22 22 22 22 22 23 23 23 23 23 24 24 25 26
14 15 15 14 13 12 11 11 11 12 12 12 12 12 12 12 12 13 13 13 13 13 14 14 14 14 14 15 16 16 17 18 18 19 19 20 21 21 21 21 21 21 21 21 21 21 21 21 22 22 22 22 21 22 22 22 22 22 22 22 22 23 23 23 23 23 22 22 22 22 22 22 22 22 22 22 22 23 23 23 24 24 24 25 25 25 25
13 13 13 13 12 11 10 10 10 10 9 9 10 10 11 11 12 12 13 14 14 14 15 15 16 16 16 17 18 19 19 20 20 21 21 21 21 22 22 22 22 22 21 21 21 21 21 21 21 22 22 22 22 22 22 23 23 23 23 24 24 24 23 23 22 22 22 21 22 22 22 22 22 22 22 22 23 23 23 24 24 24 25 25 25 25 25
12 11 11 11 10 9 9 9 10 9 9 9 9 9 10 11 12 13 14 14 15 15 15 16 17 17 18 19 19 20 20 21 21 21 21 21 22 22 22 22 22 21 21 21 21 21 21 21 21 22 22 22 22 23 24 24 24 24 24 24 24 23 23 22 22 21 21 21 21 21 21 21 21 21 22 22 22 23 23 23 24 24 25 25 25 25 25
10 9 9 9 8 7 7 7 8 7 7 7 8 8 8 9 10 11 12 13 14 15 15 16 17 18 19 19 20 20 20 21 21 21 21 21 21 21 21 21 21 21 21 21 21 21 22 22 22 22 22 23 23 23 24 25 24 24 24 24 23 22 22 21 21 21 20 20 21 21 21 21 21 21 21 22 22 22 23 24 24 25 25 25 25 25 24
8 8 8 7 6 6 6 7 7 6 6 6 7 7 7 8 9 10 11 12 13 14 15 16 17 18 19 19 20 20 20 20 21 21 22 22 22 21 21 21 21 21 22 22 22 22 22 22 23 23 23 22 23 23 23 23 23 23 23 23 22 21 21 21 21 21 20 21 21 21 21 20 20 21 21 22 22 23 24 25 25 25 25 24 24 23 22
7 7 7 6 6 5 6 6 6 6 6 6 7 7 8 9 10 10 11 12 13 14 15 16 17 18 18 19 20 20 20 21 21 22 22 22 22 22 22 22 21 21 21 21 22 22 22 22 22 22 22 22 23 23 23 23 23 23 22 22 21 21 20 20 20 20 20 21 21 21 21 20 20 20 21 23 24 25 25 25 24 23 23 22 21 21 20
7 6 6 6 6 6 7 7 7 6 6 7 7 8 9 9 10 11 12 12 13 14 15 16 16 17 18 18 19 19 20 20 21 21 21 22 22 22 21 21 20 20 20 20 20 20 21 21 21 22 22 22 22 22 22 22 22 22 21 21 21 20 20 20 20 21 22 22 22 21 20 20 20 21 23 24 25 25 24 23 22 21 21 20 20 19 19
6 6 6 6 6 6 7 7 7 8 8 8 8 9 9 10 10 11 11 11 12 13 14 14 15 16 16 17 17 18 18 18 19 19 20 20 20 19 19 18 18 18 18 18 18 18 19 19 19 20 20 20 20 20 20 20 20 20 20 20 21 21 21 21 21 21 21 20 19 19 19 20 21 22 23 23 23 22 21 20 20 20 20 19 19 18 18
5 5 5 5 5 6 6 6 7 7 7 7 8 8 9 9 10 10 11 11 12 12 13 13 14 14 15 16 16 16 16 17 17 17 17 17 17 16 16 16 16 17 17 17 17 17 17 17 17 17 18 18 18 19 19 19 20 20 20 20 20 21 21 21 20 19 19 18 18 19 20 21 21 22 21 21 21 20 20 20 19 19 18 18 18 17 18
4 4 4 5 5 5 6 6 6 6 7 7 8 8 9 9 10 10 11 11 12 12 12 13 13 13 14 14 14 14 14 15 15 15 14 14 14 14 13 14 15 16 16 16 16 16 16 16 16 17 17 17 18 18 19 19 19 20 20 20 20 20 20 19 19 19 19 19 20 21 21 21 21 21 21 20 20 19 19 18 18 17 17 17 17 17 17
4 4 5 5 5 5 5 6 6 6 7 7 8 8 9 9 10 11 11 11 11 12 11 11 11 11 11 11 12 12 12 12 12 12 12 13 13 13 13 13 14 14 14 14 14 14 14 15 15 15 16 17 17 17 18 17 18 18 17 17 17 18 18 18 19 19 19 20 20 21 21 21 20 20 20 19 18 17 17 17 16 16 16 16 17 17 17
5 5 5 5 5 5 5 6 6 6 7 7 8 8 9 9 9 10 10 10 10 11 10 10 10 9 9 9 9 9 10 10 10 11 11 12 12 12 12 12 12 12 12 12 12 12 12 12 12 12 13 14 14 14 14 14 14 15 15 15 16 16 17 17 18 18 18 18 18 18 18 18 18 17 17 17 16 16 16 16 16 16 16 16 16 16 16
5 5 5 5 5 5 5 6 6 6 7 7 7 8 8 8 9 9 9 9 9 9 9 9 9 8 8 8 8 8 8 8 9 9 10 9 9 9 10 10 10 10 9 9 10 10 11 11 11 11 11 11 11 11 11 11 12 13 13 14 15 16 16 16 16 16 16 16 16 16 16 16 16 15 15 16 16 16 16 16 16 16 16 15 15 15 15
6 6 6 5 5 6 6 6 6 6 6 6 6 7 7 7 8 8 8 9 9 9 9 9 9 8 8 8 8 8 8 8 8 8 8 8 8 7 7 7 8 8 8 9 9 10 10 10 10 10 9 9 9 9 10 11 12 12 13 14 14 15 15 15 15 15 15 15 14 14 14 14 15 15 15 16 16 16 16 16 16 15 15 16 16 15 15
6 6 6 6 6 6 6 6 6 6 6 6 6 7 7 7 7 8 8 8 8 8 9 9 9 9 9 9 9 9 8 8 8 8 8 8 8 8 8 8 9 9 9 10 10 10 10 10 9 9 9 9 9 10 11 12 12 12 13 13 13 13 14 14 14 13 13 13 13 13 14 14 14 15 15 15 15 15 15 15 15 15 15 16 16 16 16
6 6 6 6 6 6 6 7 7 7 7 7 7 7 7 7 8 8 8 8 8 9 9 9 9 9 9 9 9 9 9 9 9 9 9 9 9 9 10 10 10 10 11 11 11 11 10 10 10 10 10 11 11 11 12 12 12 12 13 13 13 13 13 13 13 13 13 13 13 14 14 14 14 14 14 14 15 14 14 14 15 15 16 16 16 16 16
6 6 7 6 6 7 7 7 7 7 8 8 8 8 8 9 9 9 9 9 9 9 9 9 10 9 9 10 10 10 10 10 10 10 10 10 11 11 11 11 12 12 12 11 11 11 11 11 11 11 12 11 12 12 12 12 12 12 13 13 13 13 13 13 13 13 13 13 13 13 13 14 14 14 14 14 14 14 14 14 15 15 16 16 16 16 17
6 7 7 7 7 7 7 8 8 8 8 8 9 9 9 10 10 10 10 10 10 10 10 10 10 10 10 10 10 10 10 10 10 10 11 11 12 12 12 12 12 12 12 12 12 12 12 12 12 12 12 12 12 12 12 12 12 13 13 13 13 13 13 13 13 13 13 13 13 13 13 14 14 14 14 14 15 15 15 16 16 16 17 17 17 17 17
6 7 7 7 8 8 8 8 8 9 9 9 9 10 10 10 11 10 10 10 10 10 10 10 10 10 10 11 11 11 11 11 11 12 12 12 13 13 13 13 13 13 13 13 13 13 13 13 13 13 13 13 13 13 13 13 13 13 13 13 13 12 12 12 12 13 13 13 13 14 14 14 15 15 15 15 16 16 17 17 17 18 18 18 18 18 18
6 7 7 8 8 8 8 9 9 9 9 9 10 10 10 10 10 10 10 11 11 11 11 11 11 11 11 11 12 12 12 12 13 13 13 14 14 14 14 14 14 14 14 14 14 14 14 14 14 14 14 14 14 13 13 13 13 12 12 12 12 13 13 13 13 14 14 14 15 15 15 16 16 17 17 17 17 17 18 18 18 18 19 19 19 19 19
7 7 7 8 8 9 9 9 9 9 10 10 10 10 10 10 10 10 11 11 11 11 12 12 12 12 12 12 13 13 13 14 14 15 15 15 15 15 15 15 15 15 15 15 15 15 15 15 15 15 15 15 14 14 14 14 14 14 14 14 14 14 15 15 15 16 16 17 17 17 17 18 18 19 19 18 18 19 19 19 19 19 20 20 20 20 20
7 7 8 8 9 9 10 9 10 10 10 10 10 11 11 11 11 11 11 11 11 12 12 12 13 13 13 14 14 15 15 15 15 15 15 15 15 15 15 16 16 16 16 16 16 16 16 16 16 16 16 16 16 16 16 16 16 16 16 17 17 17 17 17 18 18 18 18 19 19 19 19 19 20 20 20 19 20 20 20 20 20 20 20 20 20 21
8 8 9 9 10 10 10 10 10 10 11 11 11 11 12 11 11 11 11 12 12 12 13 13 13 14 14 15 16 16 16 17 17 17 17 16 16 16 16 16 16 16 16 16 16 16 16 16 16 17 17 17 17 17 18 18 18 18 19 19 19 19 19 19 20 20 20 20 20 20 20 20 20 21 21 21 20 21 21 21 21 21 21 21 21 21 21
Wind_Direction
232 233 232 228 227 228 227 226 226 224 223 224 225 227 228 227 231 236 235 233 237 239 238 238 239 236 235 239 240 239 240 242 242 242 238 228 223 223 223 224 225 228 230 229 227 226 225 224 225 226 227 230 232 235 239 243 246 249 253 256 258 260 262 263 264 265 267 269 269 268 263 258 258 262 262 261 262 265 268 269 269 270 272 271 266 263 263
231 231 231 228 227 229 228 226 225 223 223 224 226 228 228 228 233 237 236 234 236 237 236 237 237 235 236 239 240 239 239 237 236 237 235 229 225 224 224 225 225 228 230 229 228 227 226 225 225 225 227 230 233 237 241 245 248 251 256 259 260 263 265 266 268 270 271 271 272 271 268 263 262 264 264 263 265 267 269 270 270 270 271 270 267 264 262
233 232 231 229 228 229 229 227 225 223 223 224 226 227 227 227 232 235 234 235 237 235 235 236 237 237 238 240 239 238 237 235 233 234 233 230 227 225 225 225 226 227 229 229 230 229 228 228 227 227 229 231 235 241 245 249 251 254 258 261 264 266 268 270 271 272 273 273 273 274 273 269 267 268 268 267 269 270 270 269 269 271 272 270 268 264 261
234 231 230 229 229 230 231 230 226 223 223 224 225 226 226 225 228 231 231 234 235 234 234 237 238 237 237 238 238 237 235 232 230 231 230 228 225 224 225 227 228 229 229 230 232 232 231 230 229 230 232 234 238 245 250 253 256 259 262 264 267 269 270 271 272 272 273 274 274 277 278 277 275 274 272 270 272 272 270 268 267 269 271 270 268 264 260
236 232 229 229 228 230 231 229 227 224 223 224 226 226 225 224 226 227 230 233 235 232 231 234 237 237 237 238 238 236 233 231 231 231 230 227 225 225 227 228 229 230 231 232 233 232 232 232 231 231 233 236 242 247 253 257 259 262 264 267 270 272 273 274 274 274 275 275 277 279 280 280 280 278 274 272 272 273 272 269 267 267 269 269 268 264 261
239 235 230 228 228 229 230 228 227 226 224 224 226 227 227 227 228 230 232 235 234 230 229 231 234 235 237 239 239 238 235 233 233 233 232 231 229 229 230 231 232 232 233 233 234 234 234 233 232 233 236 241 247 252 257 260 261 262 265 269 272 274 276 276 276 276 276 276 278 280 280 280 279 278 276 274 274 275 274 271 268 269 270 268 266 265 264
241 236 228 228 232 231 230 229 228 227 227 226 227 229 231 230 231 232 234 235 233 231 231 233 234 233 234 235 237 238 238 235 234 234 234 234 234 234 235 236 235 234 234 234 234 234 234 233 232 234 239 246 252 256 259 260 260 262 266 269 273 276 277 278 278 277 277 277 279 281 281 281 280 279 278 276 276 277 276 272 271 272 273 270 266 265 266
238 233 228 233 239 236 231 230 228 227 227 224 224 228 230 231 231 231 232 234 234 234 234 235 234 231 229 231 234 238 239 238 237 237 235 235 235 235 237 238 237 235 234 234 233 232 233 233 232 235 242 249 253 256 258 259 261 264 267 270 274 277 279 280 279 278 279 279 280 281 282 282 281 280 280 278 276 277 277 275 273 273 274 272 267 265 266
235 236 235 238 241 237 230 228 226 227 228 226 225 228 229 229 229 229 231 234 235 234 233 232 230 229 229 231 235 239 240 238 238 239 237 235 235 235 237 237 234 232 231 231 230 230 231 232 233 236 243 249 252 256 259 261 263 266 268 271 275 278 281 282 281 280 281 282 282 283 283 283 282 282 280 278 276 276 276 273 271 271 273 272 267 266 266
238 241 243 240 238 233 227 226 227 230 233 233 232 231 229 228 229 228 229 232 233 232 231 228 227 227 229 231 235 240 242 239 239 239 236 234 235 235 237 235 230 227 228 228 227 228 230 231 234 238 243 248 253 257 261 263 265 267 271 274 278 281 283 285 284 283 283 285 286 287 286 285 285 284 281 279 278 278 275 271 270 272 272 268 264 265 265
240 242 243 241 238 234 230 230 231 232 234 233 230 228 227 227 228 227 228 230 231 230 227 224 224 226 228 230 234 241 244 240 237 235 232 232 232 233 235 233 225 222 223 224 226 229 231 234 237 239 243 248 253 259 262 264 266 270 274 277 280 283 285 286 286 285 285 287 289 289 288 288 288 286 282 282 283 279 275 273 273 272 269 265 263 265 267
240 242 244 241 238 235 231 233 236 236 233 227 224 224 225 226 227 227 227 227 228 227 224 222 225 228 229 230 234 238 238 235 233 231 229 228 229 230 229 224 218 217 220 223 226 230 232 234 236 238 244 249 254 260 264 266 269 273 278 281 283 284 286 288 288 287 288 290 290 290 289 289 288 284 280 280 279 275 271 273 273 270 268 267 266 269 270
239 240 242 241 236 230 229 235 239 235 227 221 221 224 226 225 225 226 224 223 223 223 221 221 224 226 224 224 226 226 224 223 224 225 223 224 224 222 219 216 215 217 221 224 226 230 233 235 237 240 245 251 257 263 266 268 271 276 281 284 286 286 287 288 289 289 290 291 290 290 290 289 286 282 280 278 274 270 269 271 270 269 269 268 270 272 272
236 237 240 238 231 225 233 245 240 228 222 223 223 224 223 220 217 215 214 214 214 212 211 210 212 212 212 213 213 212 211 212 214 215 216 216 213 210 211 214 216 219 223 226 228 233 237 239 240 243 248 253 261 266 267 269 273 277 281 285 287 287 287 289 290 292 292 291 290 290 290 287 282 280 280 277 271 266 269 272 271 268 267 268 271 274 273
230 232 236 234 227 228 242 247 233 221 222 224 219 215 215 211 205 204 206 209 208 204 201 201 202 203 204 205 205 204 205 207 209 210 211 211 211 210 213 217 220 221 226 230 234 237 241 244 246 248 251 256 263 267 269 271 274 277 281 284 285 286 287 289 291 292 292 290 289 289 287 283 279 279 278 275 269 266 268 271 271 268 268 270 272 272 270
227 227 232 232 230 235 242 235 222 215 215 214 210 206 204 201 198 198 200 201 201 200 198 198 200 201 203 204 205 206 207 208 210 212 212 213 214 217 220 224 226 228 230 234 239 241 244 247 251 253 256 260 265 269 271 273 274 277 280 281 283 285 288 290 290 290 290 289 288 286 283 280 279 278 274 270 266 267 269 270 269 269 271 272 271 269 267
227 225 231 232 227 228 230 220 209 203 198 195 196 194 193 192 192 194 194 193 192 193 195 196 199 202 205 207 208 209 210 213 215 217 218 220 222 225 227 230 233 235 236 240 244 246 248 251 255 258 262 264 268 271 273 273 274 276 279 281 284 287 288 289 288 287 287 287 286 284 281 279 278 275 271 267 266 266 267 267 268 270 271 271 269 267 266
217 215 222 221 209 207 210 201 192 188 185 184 184 182 183 186 187 189 192 192 192 194 196 199 202 206 208 208 209 212 215 219 222 223 224 226 228 230 232 235 237 238 240 244 247 247 250 254 259 264 267 267 268 270 271 272 273 276 279 284 287 288 288 287 286 284 283 284 284 282 280 278 277 274 270 268 267 266 266 267 267 269 269 269 269 269 268
211 209 210 207 195 193 197 193 187 182 177 177 178 178 179 182 184 186 190 191 193 198 201 203 205 207 208 208 210 215 218 220 222 223 224 228 231 233 236 240 243 244 245 249 251 251 253 258 263 267 268 267 266 269 271 271 273 276 281 286 289 288 287 286 284 280 279 280 281 279 278 277 277 275 272 271 269 268 267 266 266 266 268 271 272 271 271
213 211 206 201 194 192 193 191 189 184 178 174 175 176 179 181 183 186 189 192 195 199 203 206 206 207 210 210 211 214 217 219 221 224 226 229 233 236 240 245 248 250 252 254 256 258 260 263 265 267 267 266 267 269 271 271 273 276 280 285 287 285 283 283 282 279 277 278 278 277 275 275 276 276 275 273 270 268 267 266 265 266 270 274 275 275 275
212 210 205 200 196 197 199 195 190 187 182 178 176 176 176 178 182 185 189 192 196 198 202 207 206 206 210 211 209 212 217 221 225 229 232 236 239 241 245 249 251 254 257 260 262 265 267 267 266 268 269 269 270 271 271 272 274 276 278 281 281 280 279 280 281 279 278 278 277 277 275 274 275 279 278 275 271 269 268 267 267 270 274 277 278 278 278
211 211 209 207 204 202 201 197 194 191 186 182 181 181 180 181 185 188 190 193 199 203 205 208 208 207 212 214 213 215 221 226 231 236 239 242 244 247 250 252 254 257 261 264 266 268 269 270 270 272 273 271 271 271 271 272 273 274 275 276 276 277 278 278 279 278 278 277 275 275 275 274 274 276 277 275 273 270 268 268 272 276 279 279 280 280 280
214 210 209 211 212 210 205 200 199 199 195 190 188 189 189 190 194 198 198 199 204 210 213 213 210 208 213 219 221 221 225 231 236 240 243 246 251 255 258 259 261 263 265 266 267 269 272 274 275 275 275 273 272 271 270 270 270 270 271 273 275 276 277 277 277 277 278 276 274 274 276 275 274 274 272 270 270 272 273 275 278 280 280 280 280 281 281
213 205 207 212 212 209 208 205 203 203 202 199 197 199 199 200 203 206 205 204 208 212 215 217 215 212 215 223 228 230 233 239 245 248 250 255 262 265 266 266 266 267 268 268 269 271 273 275 276 277 277 275 272 269 268 267 267 267 268 271 273 273 274 276 276 275 276 276 276 276 276 274 273 273 269 265 267 274 278 280 280 280 281 281 281 281 282
204 199 203 205 203 203 206 205 203 204 203 202 203 208 211 212 214 214 212 211 213 216 216 219 224 228 231 235 239 241 243 247 252 256 258 263 267 269 269 269 269 270 271 271 271 273 274 275 276 276 276 273 270 267 266 264 264 265 267 269 271 271 272 274 275 275 275 277 278 278 276 273 271 271 269 267 269 274 278 280 280 282 283 283 282 282 283
193 193 194 195 197 202 205 205 206 208 206 204 204 207 210 212 212 213 215 217 220 223 225 229 237 244 246 246 247 248 249 252 256 260 263 265 267 268 269 270 271 272 273 273 273 273 273 273 273 274 273 270 266 265 264 263 263 265 266 268 270 270 271 273 275 276 276 277 277 277 276 273 272 272 272 272 273 275 278 280 282 283 284 284 284 284 285
190 193 193 193 199 205 207 206 207 207 207 206 206 206 210 212 212 214 218 222 225 230 235 240 246 250 252 253 253 255 256 258 261 263 264 266 267 268 270 270 271 273 274 273 273 273 272 271 271 270 269 267 265 264 263 262 262 263 266 267 269 270 270 271 274 275 276 276 277 277 276 274 273 274 275 275 276 278 279 281 282 283 283 283 284 286 287
184 189 192 195 201 207 210 211 209 206 206 208 209 210 214 216 217 220 224 227 232 236 241 247 251 253 254 257 258 259 261 263 264 266 267 269 270 271 271 271 272 274 274 274 273 272 271 270 268 267 267 266 264 264 264 262 261 262 265 267 269 270 269 270 272 274 275 276 276 276 276 275 276 276 277 277 278 279 280 281 282 282 282 282 284 287 288
182 188 189 190 193 197 203 208 209 209 211 213 214 217 219 220 223 227 231 234 238 242 247 253 256 255 256 258 260 262 265 266 268 269 270 271 273 274 273 273 273 275 275 274 273 271 269 268 266 265 265 264 263 264 264 262 261 262 265 267 269 270 269 270 271 273 274 274 274 274 275 276 276 277 277 278 279 280 281 282 281 281 281 282 285 287 288
181 185 184 182 183 184 188 196 201 204 209 215 218 221 225 227 229 233 238 243 247 250 253 257 258 259 260 262 263 266 268 269 271 272 273 274 275 275 275 273 273 274 275 275 274 271 269 267 265 264 263 262 262 263 263 261 261 261 263 266 269 270 270 270 271 271 272 272 273 274 276 277 277 278 278 279 280 281 282 281 281 281 283 285 286 287 286
174 176 177 178 180 180 182 188 193 195 204 215 220 225 231 235 237 241 247 252 254 256 259 260 261 263 264 265 267 269 270 271 273 274 275 276 278 278 276 274 272 272 274 274 274 271 268 266 264 263 262 262 262 262 261 260 260 261 263 267 269 270 269 269 269 270 271 272 273 275 277 278 278 278 279 281 282 282 282 282 282 284 287 287 287 286 285
158 162 168 175 180 184 189 196 201 205 214 224 230 234 239 243 246 249 253 256 258 261 262 263 264 266 267 267 269 270 270 272 274 275 277 278 279 279 278 275 272 271 271 272 272 270 268 265 263 261 261 262 263 262 261 261 261 262 265 267 268 268 266 266 267 269 271 272 273 275 277 277 278 279 280 282 283 283 283 283 285 288 289 288 287 286 284
154 153 158 167 179 188 192 197 203 209 216 224 230 235 239 244 248 251 254 258 261 263 264 264 266 267 268 268 269 270 271 273 274 275 277 278 278 279 278 276 274 272 271 270 270 269 268 266 263 260 260 262 264 264 263 263 264 265 266 266 265 263 263 265 267 268 270 272 274 277 278 279 279 280 281 282 283 284 285 286 289 290 290 289 287 286 282
168 163 161 166 177 188 194 200 206 212 216 222 228 235 243 251 257 259 261 263 265 267 268 269 270 270 270 271 272 273 274 275 275 275 277 277 277 277 276 275 274 273 271 270 269 268 267 266 263 261 260 263 265 267 266 265 266 267 265 262 261 261 263 265 267 268 270 273 275 277 278 280 280 280 282 283 284 285 288 290 291 290 289 288 287 284 280
173 172 174 180 190 200 207 213 219 224 229 236 244 252 259 264 268 270 270 271 273 275 276 277 277 276 276 276 276 276 276 276 276 276 277 276 275 275 274 274 274 273 272 271 269 267 267 266 264 262 262 263 265 267 265 265 265 265 261 258 258 260 263 265 266 269 272 274 275 276 277 278 279 281 283 285 286 288 290 291 290 289 288 287 287 284 281
181 185 190 197 206 215 223 230 235 241 247 253 260 265 269 272 274 275 275 276 278 280 281 282 282 281 280 279 278 277 277 276 276 276 275 275 275 275 275 275 275 274 273 273 271 269 267 265 263 262 262 263 264 264 263 262 263 261 258 256 257 259 262 265 268 271 273 274 275 274 274 275 279 283 286 287 288 289 290 290 288 288 288 288 287 285 282
187 195 202 210 218 225 232 240 248 253 257 262 266 270 274 276 277 277 278 279 281 283 284 284 284 282 281 280 279 277 277 277 276 276 276 276 276 276 276 276 275 274 273 272 271 269 267 264 262 262 262 263 262 260 259 260 263 261 259 258 259 261 264 268 270 271 271 272 272 272 273 277 282 285 286 288 289 290 289 289 288 288 288 287 286 284 282
198 206 214 222 230 236 241 247 253 257 260 265 269 272 274 276 276 277 280 282 284 286 287 285 283 282 281 280 279 279 279 279 278 278 278 277 277 277 277 277 276 273 271 270 270 269 266 264 263 263 262 262 260 258 258 262 264 263 261 261 262 263 265 267 268 268 268 270 273 275 278 281 283 285 286 289 290 289 289 289 289 289 288 286 285 285 284
217 224 231 238 245 250 253 256 259 261 265 268 271 273 275 275 276 278 281 283 285 288 288 286 284 284 284 282 281 281 282 281 281 280 280 278 278 277 277 277 276 272 270 270 270 268 266 265 265 265 264 264 264 263 263 264 265 265 263 262 262 262 262 264 265 267 268 271 275 279 281 283 284 285 287 289 290 289 289 289 289 288 288 288 287 287 286
240 246 249 254 258 261 265 267 268 270 272 274 276 278 279 279 279 281 284 286 288 291 293 291 289 289 289 287 285 285 285 284 283 282 280 279 278 276 275 275 274 272 270 270 270 268 266 266 266 267 267 267 266 265 265 265 266 265 263 259 258 259 263 266 268 269 271 274 277 280 282 284 285 286 287 288 288 288 288 288 288 288 289 288 288 287 286
249 253 257 262 269 273 275 275 275 275 277 280 282 283 283 284 284 285 287 288 289 291 293 295 295 294 293 291 289 288 287 285 283 283 282 281 279 276 274 274 273 272 272 272 270 267 266 267 268 268 269 268 265 264 264 264 264 263 261 258 259 262 266 269 271 273 274 277 279 280 282 283 284 285 286 286 286 287 287 288 289 289 288 288 288 288 288
247 254 258 263 271 276 278 280 281 281 282 284 284 284 283 284 285 287 288 289 289 289 291 293 295 295 293 292 291 290 289 286 285 285 285 285 284 282 279 277 276 275 274 274 273 271 271 272 273 271 270 267 264 262 262 263 263 262 261 261 263 266 268 270 272 274 276 277 279 280 281 282 282 283 283 284 285 286 287 288 288 288 287 287 288 288 288
244 251 257 264 272 277 280 282 283 284 285 286 286 287 288 289 290 291 291 292 292 291 291 292 293 293 292 290 290 289 289 289 288 288 287 288 288 286 282 280 278 276 275 277 278 277 276 275 274 271 268 266 263 262 264 266 266 265 265 265 265 266 268 269 271 272 274 276 278 279 280 281 281 282 283 284 286 287 288 288 288 287 287 287 286 286 286
247 253 261 267 272 275 277 279 281 283 285 288 289 291 294 296 298 298 296 295 295 294 293 292 292 293 293 292 291 290 289 288 288 288 288 287 286 285 282 280 279 278 278 279 280 279 277 276 273 270 267 266 265 266 268 269 269 268 268 267 267 268 268 269 270 272 274 276 277 278 279 280 281 283 285 286 287 288 289 289 289 290 289 288 287 285 284
254 260 266 269 272 274 276 279 280 281 283 284 286 289 293 297 300 300 299 297 297 296 294 293 292 292 292 292 291 289 286 285 284 284 285 284 285 284 282 280 280 280 280 280 279 276 274 272 270 267 265 264 265 268 270 270 269 269 269 268 268 269 270 270 271 273 274 275 276 277 279 281 283 285 286 287 288 288 289 290 291 292 292 291 289 287 284
259 263 267 270 273 275 277 280 281 282 282 282 283 286 292 296 298 297 296 296 295 294 294 293 293 291 291 290 290 289 287 286 284 284 283 283 283 284 283 280 278 278 278 277 276 274 271 269 267 266 265 265 266 269 271 270 269 269 269 269 270 271 272 272 272 272 273 275 276 278 280 282 284 285 287 288 289 289 290 292 293 293 293 292 291 290 287
262 264 267 269 272 274 277 280 283 284 284 283 282 284 288 292 293 292 291 292 293 293 292 292 292 292 291 291 290 289 288 287 285 285 285 285 284 285 284 282 278 276 275 275 275 273 270 267 267 267 266 266 268 271 272 271 270 270 270 270 271 272 271 271 271 273 274 276 278 280 281 283 284 286 287 288 288 289 290 292 294 294 293 292 291 290 289
266 269 271 271 272 274 277 279 281 283 284 283 281 282 285 288 288 287 287 288 290 291 291 290 290 290 290 290 290 289 287 286 285 285 286 287 286 285 285 283 279 276 275 274 274 273 271 269 268 268 267 266 268 270 270 270 270 270 270 270 270 270 270 270 272 275 277 278 279 280 282 282 284 285 286 287 287 287 289 290 292 293 294 293 291 290 289
271 273 274 275 276 277 278 279 280 281 282 281 281 283 286 287 286 286 287 288 288 287 287 288 288 288 288 288 288 288 287 286 285 285 286 286 286 285 284 283 280 277 275 275 275 274 272 270 269 269 267 267 268 269 269 268 269 269 269 269 270 270 270 271 274 276 278 280 281 281 282 283 284 285 286 286 285 286 287 288 290 291 293 293 292 290 289
272 273 275 277 280 282 281 280 281 282 282 281 281 283 285 286 285 286 288 288 287 287 287 287 287 287 287 287 288 288 288 287 286 286 285 285 284 283 282 281 280 278 277 276 276 275 272 270 268 267 267 267 267 267 267 266 267 267 268 269 271 272 273 275 276 278 279 280 281 282 283 284 285 286 286 286 285 285 286 287 288 289 291 292 292 292 290
272 273 274 279 283 285 284 283 283 283 283 282 283 284 285 285 286 288 289 290 289 290 289 288 287 288 289 290 290 290 290 289 288 286 284 283 282 282 281 281 280 279 278 277 276 275 273 270 267 265 264 265 266 266 266 267 267 268 269 270 271 273 274 275 276 277 278 279 281 282 283 284 285 286 286 285 285 285 286 286 287 288 289 290 291 292 292
274 274 276 280 284 286 285 285 286 287 286 285 285 285 284 284 285 287 289 291 291 290 290 289 288 289 291 293 293 292 292 291 289 287 284 282 281 280 280 281 281 280 279 278 276 275 273 271 268 266 265 266 266 267 267 268 269 270 270 271 272 273 274 275 276 277 278 279 280 281 283 284 284 285 285 285 285 285 285 286 286 287 287 288 289 291 292